| time (UTC) | temp F | wind direction | speed knots | gust knots | rain 1hr in | rain 24hr in | rain mn in | humidity % | barometer mb |
| 20260503045959 | 45 | 215 | 0.0 | 0.0 | 0.00 | 1.50 | 0.00 | 97 | 1013.7 |
| 20260503044430 | 45 | 215 | 0.0 | 0.0 | 0.00 | 1.50 | 0.00 | 97 | 1013.7 |
| 20260503043000 | 46 | 215 | 0.0 | 0.0 | 0.00 | 1.50 | 0.00 | 97 | 1013.7 |
| 20260503041430 | 46 | 215 | 0.0 | 0.0 | 0.00 | 1.50 | 0.00 | 97 | 1013.8 |
| 20260503035922 | 46 | 215 | 0.0 | 0.0 | 0.00 | 1.50 | 0.00 | 97 | 1013.8 |
| 20260503034435 | 46 | 215 | 0.0 | 0.0 | 0.00 | 1.50 | 0.00 | 97 | 1013.8 |
| 20260503032931 | 46 | 215 | 0.0 | 0.0 | 0.00 | 1.50 | 0.00 | 97 | 1013.8 |
| 20260503031435 | 46 | 215 | 0.0 | 0.0 | 0.00 | 1.50 | 0.00 | 97 | 1013.8 |
| 20260503025930 | 46 | 215 | 0.0 | 0.0 | 0.00 | 1.50 | 0.00 | 97 | 1013.8 |
| 20260503024438 | 46 | 215 | 0.0 | 0.0 | 0.00 | 1.50 | 0.00 | 97 | 1014.1 |
| 20260503022929 | 46 | 215 | 0.0 | 0.0 | 0.00 | 1.50 | 0.00 | 97 | 1014.2 |
| 20260503021500 | 46 | 215 | 0.0 | 0.0 | 0.00 | 1.50 | 0.00 | 97 | 1014.1 |
| 20260503015926 | 46 | 215 | 0.0 | 0.0 | 0.00 | 1.50 | 0.00 | 97 | 1014.2 |
| 20260503014438 | 47 | 215 | 0.0 | 0.0 | 0.00 | 1.50 | 0.00 | 97 | 1014.1 |
| 20260503012947 | 47 | 215 | 0.0 | 0.0 | 0.00 | 1.50 | 0.00 | 97 | 1014.3 |
| 20260503011439 | 47 | 215 | 0.0 | 0.0 | 0.00 | 1.50 | 0.00 | 97 | 1014.4 |
| 20260503005931 | 47 | 215 | 0.0 | 0.0 | 0.00 | 1.50 | 0.00 | 97 | 1014.5 |
| 20260503004423 | 48 | 215 | 0.0 | 0.0 | 0.00 | 1.50 | 0.00 | 97 | 1014.5 |
| 20260503002933 | 48 | 215 | 0.0 | 0.0 | 0.00 | 1.50 | 0.00 | 96 | 1014.6 |
| 20260503001423 | 48 | 215 | 0.0 | 0.0 | 0.00 | 1.50 | 0.00 | 96 | 1014.7 |
| 20260502235932 | 48 | 215 | 0.0 | 0.0 | 0.00 | 1.50 | 0.30 | 96 | 1014.6 |
| 20260502234423 | 48 | 215 | 0.0 | 0.9 | 0.00 | 1.50 | 0.30 | 96 | 1014.8 |
| 20260502232934 | 49 | 215 | 0.0 | 0.0 | 0.00 | 1.50 | 0.30 | 96 | 1014.7 |
| 20260502231445 | 49 | 215 | 0.0 | 0.0 | 0.00 | 1.50 | 0.30 | 96 | 1014.8 |
| 20260502225936 | 49 | 215 | 0.0 | 0.0 | 0.00 | 1.50 | 0.30 | 94 | 1014.9 |
| 20260502224427 | 49 | 215 | 0.0 | 0.0 | 0.00 | 1.50 | 0.30 | 93 | 1014.9 |
| 20260502222939 | 49 | 215 | 0.0 | 0.0 | 0.00 | 1.50 | 0.30 | 94 | 1014.7 |
| 20260502221430 | 48 | 215 | 0.0 | 0.0 | 0.00 | 1.50 | 0.30 | 93 | 1014.8 |
| 20260502220000 | 48 | 215 | 0.0 | 0.0 | 0.00 | 1.50 | 0.30 | 93 | 1014.9 |
| 20260502214427 | 49 | 215 | 0.0 | 0.0 | 0.00 | 1.50 | 0.30 | 93 | 1014.9 |
| 20260502212959 | 49 | 215 | 0.0 | 0.0 | 0.00 | 1.50 | 0.30 | 93 | 1014.8 |
| 20260502211427 | 49 | 215 | 0.0 | 0.0 | 0.00 | 1.50 | 0.30 | 92 | 1014.7 |
| 20260502205939 | 50 | 215 | 0.0 | 0.0 | 0.00 | 1.50 | 0.30 | 92 | 1014.7 |
| 20260502204427 | 50 | 215 | 0.0 | 0.0 | 0.00 | 1.50 | 0.30 | 91 | 1014.6 |
| 20260502202939 | 51 | 217 | 0.0 | 0.0 | 0.00 | 1.50 | 0.30 | 91 | 1014.4 |
| 20260502201430 | 52 | 217 | 0.0 | 0.0 | 0.00 | 1.50 | 0.30 | 91 | 1014.4 |
| 20260502195939 | 52 | 217 | 0.0 | 0.0 | 0.00 | 1.50 | 0.30 | 91 | 1014.4 |
| 20260502194430 | 52 | 217 | 0.0 | 0.0 | 0.00 | 1.50 | 0.30 | 90 | 1014.3 |
| 20260502192921 | 52 | 217 | 0.0 | 0.0 | 0.00 | 1.50 | 0.30 | 89 | 1014.2 |
| 20260502191432 | 52 | 218 | 0.0 | 0.0 | 0.00 | 1.50 | 0.30 | 89 | 1014.1 |
| 20260502185921 | 53 | 218 | 0.0 | 0.0 | 0.00 | 1.50 | 0.30 | 87 | 1014.1 |
| 20260502184450 | 53 | 218 | 0.0 | 0.9 | 0.00 | 1.50 | 0.30 | 86 | 1014.1 |
| 20260502182937 | 54 | 210 | 0.0 | 0.0 | 0.00 | 1.50 | 0.30 | 85 | 1014.0 |
| 20260502181429 | 54 | 209 | 0.0 | 0.9 | 0.00 | 1.50 | 0.30 | 86 | 1013.9 |
| 20260502162958 | 55 | 183 | 0.0 | 0.0 | 0.00 | 1.50 | 0.30 | 95 | 1014.5 |
| 20260502161433 | 55 | 183 | 0.0 | 0.0 | 0.00 | 1.50 | 0.30 | 95 | 1014.6 |
| 20260502151452 | 54 | 148 | 0.0 | 0.0 | 0.00 | 1.50 | 0.30 | 95 | 1015.3 |
| 20260502122939 | 58 | 138 | 0.0 | 0.9 | 0.04 | 1.26 | 0.25 | 77 | 1015.2 |
| 20260502121432 | 59 | 203 | 0.0 | 0.9 | 0.00 | 1.22 | 0.24 | 75 | 1015.5 |
| 20260502114430 | 62 | 128 | 0.0 | 2.6 | 0.00 | 1.22 | 0.24 | 72 | 1015.7 |
| 20260502112939 | 61 | 129 | 0.0 | 2.6 | 0.00 | 1.22 | 0.24 | 74 | 1015.9 |
| 20260502111432 | 60 | 134 | 0.0 | 1.7 | 0.00 | 1.22 | 0.24 | 77 | 1016.1 |
| 20260502105940 | 60 | 130 | 0.0 | 0.9 | 0.00 | 1.22 | 0.24 | 77 | 1016.3 |
| 20260502104427 | 59 | 139 | 0.0 | 4.3 | 0.00 | 1.22 | 0.24 | 79 | 1016.7 |
| 20260502102939 | 57 | 136 | 0.9 | 2.6 | 0.00 | 1.22 | 0.24 | 81 | 1017.0 |
| 20260502101431 | 57 | 128 | 0.0 | 0.9 | 0.00 | 1.22 | 0.24 | 80 | 1017.1 |
| 20260502091438 | 53 | 80 | 0.0 | 0.9 | 0.20 | 1.22 | 0.24 | 89 | 1017.7 |
| 20260502071439 | 49 | 215 | 0.0 | 0.9 | 0.31 | 0.63 | 0.13 | 92 | 1017.8 |
| 20260502065930 | 49 | 330 | 0.0 | 0.9 | 0.28 | 0.55 | 0.11 | 93 | 1018.3 |
| 20260502064440 | 49 | 235 | 0.9 | 2.6 | 0.16 | 0.43 | 0.09 | 93 | 1018.6 |
| 20260502062928 | 49 | 232 | 0.0 | 0.0 | 0.16 | 0.35 | 0.07 | 93 | 1018.3 |
| 20260502061439 | 49 | 232 | 0.0 | 0.0 | 0.31 | 0.31 | 0.06 | 92 | 1018.4 |
| 20260502055927 | 49 | 232 | 0.0 | 0.0 | 0.28 | 0.28 | 0.06 | 92 | 1018.3 |
| 20260502054436 | 49 | 359 | 0.0 | 1.7 | 0.28 | 0.28 | 0.06 | 90 | 1018.0 |
| 20260502052924 | 49 | 132 | 0.0 | 6.1 | 0.20 | 0.20 | 0.04 | 89 | 1017.9 |
| 20260502051436 | 48 | 231 | 0.9 | 3.5 | 0.00 | 0.00 | 0.00 | 93 | 1018.3 |